Weather History for Scottsdale, AZ

Change the Weather History Date:

Saturday, September 15, 2012

  Actual Average Record
Temperature  
Mean Temperature 84 °F -  
Max Temperature 93 °F 95 °F 107 °F (2000)
Min Temperature 75 °F 74 °F 64 °F (1996)
Cooling Degree Days 19    
Growing Degree Days 34 (Base 50)    
Moisture  
Dew Point 42 °F    
Average Humidity 23    
Maximum Humidity 33    
Minimum Humidity 14    
Precipitation  
Precipitation 0.00 in - - ()
Sea Level Pressure  
Sea Level Pressure 30.00 in    
Wind  
Wind Speed 5 mph (ESE)    
Max Wind Speed 12 mph    
Max Gust Speed 17 mph    
Visibility 10 miles    
Events      
Averages and records for this station are not official NWS values.
T = Trace of Precipitation, MM = Missing Value Source: NWS Daily Summary

Daily Weather History Graph

Daily Weather History Graph

Search for Another Location

Airport:

Trip Planner

Search our weather history database for the weather conditions in past years. The results will help you decide how hot, cold, wet, or windy it might be!

Date:

Astronomy

Sep. 15, 2012 Rise Set
Actual Time 6:11 AM MST 6:33 PM MST
Civil Twilight 5:46 AM MST 6:58 PM MST
Nautical Twilight 5:17 AM MST 7:27 PM MST
Astronomical Twilight 4:47 AM MST 7:56 PM MST
Moon 5:45 AM MST (9/15) 6:08 PM MST (9/15)
Length of Visible Light 13h 11m
Length of Day
12h 21m
Waning Crescent, 0% of the Moon is Illuminated
Sep 15
Waning Crescent
Sep 15
New
Sep 22
First Quarter
Sep 29
Full
Oct 8
Last Quarter

Hourly Weather History & Observations

Time (MST) Temp. Dew Point Humidity Pressure Visibility Wind Dir Wind Speed Gust Speed Precip Events Conditions
12:53 AM 80.1 °F 45.0 °F 29% 30.03 in 10.0 mi Calm Calm - N/A   Clear
1:53 AM 81.0 °F 44.1 °F 27% 30.03 in 10.0 mi East 8.1 mph - N/A   Clear
2:53 AM 80.1 °F 44.1 °F 28% 30.03 in 10.0 mi ESE 6.9 mph - N/A   Clear
3:53 AM 80.1 °F 43.0 °F 27% 30.03 in 10.0 mi ENE 5.8 mph - N/A   Clear
4:53 AM 78.1 °F 43.0 °F 29% 30.04 in 10.0 mi East 11.5 mph - N/A   Clear
5:53 AM 75.9 °F 44.1 °F 32% 30.05 in 10.0 mi East 3.5 mph - N/A   Clear
6:53 AM 77.0 °F 44.1 °F 31% 30.05 in 10.0 mi East 4.6 mph - N/A   Clear
7:53 AM 79.0 °F 45.0 °F 30% 30.07 in 10.0 mi SSE 4.6 mph - N/A   Clear
8:53 AM 82.0 °F 42.1 °F 24% 30.08 in 10.0 mi East 10.4 mph - N/A   Clear
9:53 AM 84.0 °F 39.9 °F 21% 30.08 in 10.0 mi East 8.1 mph - N/A   Clear
10:53 AM 87.1 °F 37.9 °F 18% 30.06 in 10.0 mi East 8.1 mph 17.3 mph N/A   Clear
11:53 AM 88.0 °F 39.0 °F 18% 30.05 in 10.0 mi ESE 9.2 mph 16.1 mph N/A   Clear
12:53 PM 90.0 °F 39.0 °F 17% 30.03 in 10.0 mi Variable 3.5 mph - N/A   Clear
1:53 PM 91.9 °F 39.0 °F 16% 29.99 in 10.0 mi ENE 5.8 mph - N/A   Clear
2:53 PM 93.0 °F 37.9 °F 15% 29.96 in 10.0 mi NW 4.6 mph - N/A   Clear
3:53 PM 93.9 °F 37.9 °F 14% 29.94 in 10.0 mi SW 6.9 mph - N/A   Clear
4:53 PM 93.0 °F 37.9 °F 15% 29.92 in 10.0 mi West 3.5 mph - N/A   Clear
5:53 PM 91.9 °F 37.9 °F 15% 29.92 in 10.0 mi WSW 3.5 mph - N/A   Clear
6:53 PM 91.0 °F 39.0 °F 16% 29.92 in 10.0 mi Calm Calm - N/A   Clear
7:53 PM 89.1 °F 41.0 °F 19% 29.94 in 10.0 mi Calm Calm - N/A   Clear
8:53 PM 86.0 °F 43.0 °F 22% 29.94 in 10.0 mi Calm Calm - N/A   Clear
9:53 PM 82.9 °F 44.1 °F 25% 29.95 in 10.0 mi Calm Calm - N/A   Clear
10:53 PM 82.0 °F 44.1 °F 26% 29.96 in 10.0 mi Calm Calm - N/A   Clear
11:53 PM 78.1 °F 46.9 °F 33% 29.96 in 10.0 mi West 3.5 mph - N/A   Clear